GFSGL_prec_radar_276.txt.gz
Reflectivity
-20 -20 -20 -20 -20 -20 -20 -20 -20 -20 -20 -20 -20 -20 -20 -20 -20 -20 -20 3 -20 11 16 27 28 29 36 -7 30 26 30 23 -20 -20 -20 -20 -20 -20 -19 7 22 27 -20
-20 -20 -20 -20 -20 -20 -20 -20 -20 -20 -20 -20 -20 -20 -20 -20 -20 -20 -20 -20 -20 -18 -20 -20 27 27 28 25 28 24 29 -20 -20 -20 -20 -20 -20 -20 -20 -11 -20 -20 -20
-20 -20 -20 -20 -20 -20 -20 -20 -20 -20 -20 -20 -20 -20 -20 -20 -20 -20 -20 -20 -20 -20 -20 -20 -20 28 24 10 26 0 -0 -6 -20 -20 -20 -20 -20 -20 -20 -20 -20 -20 -20
-20 -20 -20 -20 -20 -20 -20 -20 -20 -20 -20 -20 -20 -20 -20 -20 -20 -20 -20 -20 -20 -20 -20 -20 -20 -20 27 -14 26 26 25 3 -20 -20 -20 -20 -20 0 -20 -20 -20 -20 -20
-20 -20 -20 -20 -20 -20 -20 -20 -20 -20 -20 -20 -20 -20 -20 -20 -20 -20 -20 -20 -20 -20 -20 -20 -20 -20 -20 -20 -9 1 -17 22 -20 -20 -20 -20 -20 -15 -20 -20 -20 -20 -19
-20 -20 -20 -20 -20 -20 -20 -20 31 12 -20 -12 -20 -20 -20 -20 -20 9 8 -20 -20 -20 -20 -20 -20 -20 -10 6 -20 -20 -20 -20 -20 -20 -20 -20 -20 -20 -18 -20 -7 -20 4
-20 -20 -20 -20 -20 -20 -20 -20 -6 -20 -20 -20 -20 -20 -12 -20 9 -2 7 -20 -20 -20 -20 -20 -20 -20 -4 -20 -20 4 -20 -20 -20 -20 -20 -20 -20 -20 -10 18 1 6 -19
-20 -20 -20 -20 -20 -20 -20 -20 -20 -20 -20 -20 -20 3 10 -12 12 -17 -6 -20 -20 -20 -20 -20 -20 -20 -20 -20 -20 -20 -20 -19 -18 -20 -20 -20 -20 -20 -20 -20 -19 -7 -20
-20 -20 -20 -20 -20 -20 -20 -20 -20 -20 -20 -20 -20 -6 0 -9 13 9 -11 -20 -20 -20 -20 -20 -20 -17 -20 8 -20 3 -20 -20 -20 -20 -20 -20 -20 -20 -20 -20 -20 -20 3
-20 -20 -20 -20 -20 -20 -20 -20 -20 -20 -20 -20 -20 -20 11 -2 12 -14 -19 -20 -20 -20 -20 -20 8 -12 12 -2 -20 -20 -19 -19 -19 -20 -20 -20 -20 -20 -20 -20 -20 -20 -20
-20 -20 -20 -20 -20 -20 -20 -20 -20 -20 -20 -20 -20 -20 -20 4 -1 -6 -20 -20 -20 -20 -20 -20 4 13 11 14 -7 -9 14 17 -20 -20 -20 -20 -20 -20 -20 -20 -20 -20 -20
-20 -20 -20 -20 -20 -20 -20 -20 -20 -20 -20 -20 -20 -17 -11 -20 -20 -7 4 3 -20 -20 -20 -20 -20 -18 -20 -20 16 11 23 23 -0 -20 -20 -20 -20 -20 -20 -20 -20 -20 -20
-20 -20 -20 -20 -20 -20 -20 -20 -20 -20 -20 -20 -20 -20 -20 -20 -20 -20 1 -18 -0 -20 -20 -7 -11 -20 -20 11 -20 -20 -13 -5 -20 -20 -20 -20 -20 -20 -20 -20 -20 -20 -20
-20 -20 -20 -20 -20 -20 -20 -20 -20 -20 -20 -20 -20 -20 -20 -20 -20 -20 -20 -20 2 3 3 8 7 10 -1 -9 -20 -20 -1 7 -19 -20 -20 -20 -20 -20 -20 -20 -20 -20 -12
-20 -20 -20 -20 -20 -20 -20 -16 0 -8 -18 -20 -20 -20 -20 -20 -19 -13 -19 -20 -17 1 0 10 6 8 0 -7 -20 -20 -5 32 12 -19 -15 -20 -20 -20 -20 -20 -20 -20 -20
8 -5 -18 -20 -20 -20 -20 -19 14 -6 8 10 9 -7 -14 -20 -20 5 6 1 10 9 5 4 20 15 14 12 23 9 -20 29 21 32 22 -3 -20 -20 -20 -20 -20 -20 -20
29 23 6 -6 14 7 -20 -20 -20 0 11 9 1 -19 -5 8 -20 -20 -3 12 11 3 -18 7 14 14 19 14 9 15 8 21 26 9 22 -5 21 17 -20 -20 -20 -20 -20
36 20 -1 0 11 2 22 3 -6 -20 -20 -20 6 0 -20 -20 -20 -20 -20 -20 -20 -20 -20 -13 7 -3 2 20 17 17 -1 6 23 13 6 12 -12 21 23 -20 -20 -20 -20
34 38 38 30 22 18 13 0 -20 -20 -20 -20 -20 -20 -20 -9 -20 -8 -20 -20 -20 -20 -20 -20 -16 -12 4 -11 18 25 22 -7 11 20 8 7 14 18 6 22 5 -2 -20
26 12 27 28 33 13 -5 -20 -20 -20 -20 -20 -17 -20 -20 -18 -20 -20 -20 -20 -20 -20 -20 -20 -18 -5 -3 -6 -5 4 24 22 -5 7 17 3 3 7 23 11 5 4 7
23 19 4 -7 -20 -14 -17 -20 -20 -20 -9 -20 -20 -7 -15 -20 -20 -20 -20 -20 -20 -20 -19 -19 -20 -20 -3 -3 -2 -12 10 22 19 7 14 7 3 7 8 23 11 8 -17
5 -2 5 -14 -9 -8 -20 -20 -20 -20 -20 -20 -20 -14 -5 -20 -20 -20 -20 -20 -20 -20 -4 -5 -2 0 0 -0 -0 -2 -12 1 19 12 11 13 -3 -5 8 11 24 8 36
17 -1 -8 -11 -14 -19 -20 -20 -20 -20 -20 -20 -20 -20 -20 -20 -20 -20 -0 -2 -1 -1 -1 -5 -10 -9 -5 -5 -4 -4 -4 -2 6 24 11 13 16 10 2 12 30 20 25
-16 2 7 -10 -6 -20 -20 -20 -20 -20 -20 -20 -20 -20 -20 -20 -20 -6 -9 -4 -20 -20 -6 -10 -10 -10 -20 -20 -20 -18 -7 -11 -20 -16 22 20 17 21 10 11 26 21 19
-20 -20 -20 -20 -20 -20 -20 -20 -20 -20 -20 -20 -20 -20 -20 -4 -10 -20 -20 -20 -20 -14 -5 -20 -20 -20 -20 -20 -20 -12 -20 -20 -17 -20 -7 23 18 20 18 16 25 24 -8
-20 -20 -20 -20 -20 -20 -20 -20 -20 -20 -20 -20 -20 -20 -13 -20 -20 -20 -20 -20 -20 -20 -20 -20 -20 -20 -20 -20 -20 -20 -20 -20 -20 -20 -20 -19 18 24 18 24 20 8 10

GFSGL_prec_radar_279.txt.gz
Reflectivity
-20 -20 -20 -20 -20 -20 -20 -20 -20 -20 -20 -20 -20 -20 -20 -20 -20 -20 -20 -20 -20 -20 14 -20 16 3 18 27 -1 29 23 34 16 2 2 13 14 -4 4 -12 8 18 7
-20 -20 -20 -20 -20 -20 -20 -20 -20 -20 -20 -20 -20 -20 -20 -20 -20 -20 -20 -20 -20 -20 -20 -20 -20 -6 4 20 -6 23 24 25 23 -19 0 -2 -10 23 -8 -20 2 1 25
-20 -20 -20 -20 -20 -20 -20 -20 -20 -20 -20 -20 -20 -20 -20 -20 -20 -20 -20 -20 -20 -20 -20 -12 -2 -17 -1 7 -6 29 -6 26 19 -20 0 -10 12 4 7 7 19 12 -15
-20 -20 -20 -20 -20 -20 -20 -20 -20 -20 -20 -20 -20 -20 -20 -20 -20 -20 -20 -20 -11 -20 -1 -13 -20 -7 -15 -11 12 18 3 -1 -20 -20 -19 -6 3 10 12 -9 -4 8 -2
-20 -20 -20 -20 -20 -20 -20 -20 -20 -20 -20 -20 -20 -20 -20 -20 -20 -15 -13 -17 -9 -20 -20 -4 2 -7 27 -1 5 -20 -11 14 -20 -20 -20 -7 4 -3 11 9 6 14 5
-20 -20 -20 -20 -20 -20 -20 -20 -20 -20 -16 -16 -20 -20 -1 -20 -3 5 -19 -20 -12 1 4 2 -9 7 2 6 10 -16 -18 -15 -20 -20 -20 -20 -10 -20 1 3 -3 12 6
-20 -20 -20 -20 -20 -20 -20 -20 -20 -20 -20 -20 -20 -19 -20 -20 4 4 -15 -14 -13 -20 -20 -16 -17 -17 7 -20 5 -20 30 -10 3 -20 -20 -20 -20 -20 -20 -20 -16 -7 -18
-20 -20 -20 -20 -20 -20 -20 -20 -20 -20 -20 -20 -12 -20 -20 -19 6 -5 -4 -19 -3 -14 -20 -20 -20 -15 -15 -14 -6 -20 6 6 -7 -20 -20 -20 -20 -20 -20 -20 -11 7 -12
-20 -20 -20 -20 -20 -20 -20 -20 -20 -12 -20 -3 -20 -20 -20 -20 -10 -20 -20 -20 -20 1 0 -20 -20 -20 -19 -17 -2 10 13 -20 7 -20 -20 -20 -20 -20 -20 -20 -19 -16 -16
-20 -20 -20 -20 -20 -20 -20 -5 -19 -4 -20 -20 -20 -19 -20 -20 -20 -20 -18 -20 -19 3 8 -19 -20 -20 -20 -20 -20 -20 -20 -10 10 -20 -20 -20 -20 -20 -20 -20 10 -1 -20
-20 -20 -20 -20 -20 -20 -8 -7 -3 -20 -15 -13 -20 -15 -20 -10 -20 -20 -20 -20 -20 -3 -5 -6 -20 -17 -20 -20 -20 9 19 -5 8 -20 -20 -20 -20 -20 -20 -20 -20 12 13
-20 -20 -20 -20 -20 -20 -20 -13 -7 -3 -7 -20 -10 -3 -15 -20 -0 4 6 -14 -20 -20 -20 -13 -20 -20 -20 -20 -20 -20 -20 -20 -6 -14 -20 -20 -20 -20 -20 -20 -20 -20 1
-2 -20 -20 -20 -20 -20 -20 -20 -16 -9 -20 -6 -19 -18 -20 -20 -20 -8 7 -20 -20 -20 -20 -20 -20 -20 -20 -20 -20 -20 -20 -19 -20 -20 -20 -20 -20 -20 -20 -20 -7 13 7
-17 25 10 20 18 -20 -20 -20 -20 -20 -20 -20 -20 -20 -20 -20 -20 -20 -20 -20 0 -1 -19 -13 3 -17 -18 -15 -20 -16 -20 -20 -20 -20 -20 -20 -20 -20 -20 -20 2 7 12
18 34 17 -20 -6 -20 -20 -20 -20 -20 -8 -20 -20 -20 -20 -20 -20 -11 -4 -20 -20 -0 -6 -9 -11 2 -20 -17 -1 -20 -20 -20 -20 -17 -17 -20 -20 -20 -20 -20 4 2 8
27 24 15 -9 -19 -18 -20 -20 -17 1 -15 -0 -2 1 -14 3 -16 -20 -16 -20 -6 5 -2 -8 -1 4 16 13 -10 -4 -20 -20 -20 -20 -11 -20 -17 -17 -20 -20 -16 -20 12
23 23 4 35 26 -1 12 7 11 11 -0 -4 -19 -20 -3 8 -20 -20 -20 7 -20 -20 -20 -20 -20 -20 -20 3 12 1 -2 1 -20 -20 12 3 -19 12 -12 -20 13 -5 6
-12 18 -2 8 27 26 28 28 20 21 19 -6 -14 2 -20 -20 -20 -20 -20 -20 -20 -20 -7 -5 -5 -5 -16 -20 -17 15 15 4 11 -0 -10 12 -4 -17 2 9 -19 -20 2
30 26 12 35 33 21 15 21 9 5 22 17 -2 -19 -20 8 -20 -20 -20 -20 -20 -20 -20 -3 -1 -4 -3 -2 -13 -20 1 14 23 -16 -14 -1 5 -20 -19 -20 7 2 16
11 -19 -17 2 13 14 7 14 11 28 28 14 5 -20 -20 -17 -20 -20 -20 -20 -20 -20 -20 -20 -7 -3 0 -2 -3 -6 -20 1 6 21 -8 -3 14 -4 -19 -20 -19 10 -16
-20 -20 -20 -20 -19 10 12 -12 17 11 -13 -16 -20 -20 5 -20 -20 -20 -20 -20 -20 -20 -20 -20 -12 -4 -0 -0 -4 -5 -6 -6 -2 11 5 9 10 14 9 -18 -19 -7 9
-20 -20 -20 -20 -20 -12 -5 -10 -20 -20 -20 -20 -18 -14 -20 -20 -20 -15 -7 -20 -18 -7 -3 -4 -5 -17 -6 0 0 2 -2 -1 -2 -11 10 -12 5 13 16 11 -16 -14 4
-20 -19 0 -3 -19 -2 1 -2 -20 -17 -20 -20 -20 -20 -20 -3 -2 -2 0 -1 -7 1 -10 1 -3 -3 -2 -15 -7 3 -5 -7 -1 -0 -10 -17 3 -6 7 15 -4 -4 5
-20 -20 -20 -18 6 10 8 -16 6 -20 -20 -20 -20 -17 -2 -0 -2 -7 -2 -19 -7 -3 -4 -5 -4 -7 -20 -20 -13 -3 -12 -2 -8 -17 -8 -9 7 22 3 3 16 -20 4
-20 -19 1 -20 -8 -7 4 -7 -17 -20 -20 -20 2 -20 -20 -12 -19 -13 -5 -5 -20 -20 -20 -20 -4 -20 -20 -20 -20 -2 1 7 2 -17 -20 -4 -14 7 9 3 10 13 6
-19 -11 -10 -20 -20 -20 -20 -20 -20 -20 -20 -15 7 4 0 -13 -10 -8 -3 -5 -1 1 0 -11 -8 -2 -20 -20 -20 -20 -20 -20 -20 -5 -7 -20 -5 -20 -6 22 15 26 25

GFSGL_prec_radar_285.txt.gz
Reflectivity
-20 -20 -20 -20 -20 -20 -20 -20 -20 -20 -20 -20 -20 -20 -20 -20 -20 -20 12 -20 -8 -10 -5 17 -4 19 17 1 5 -2 -18 23 15 19 16 -2 -20 -20 -8 -1 -20 -7 -20
-20 -20 -20 -20 -20 -20 -20 -20 -20 -20 -20 -20 -20 -20 -20 -20 -20 4 4 1 -3 2 26 -18 -1 -20 -2 8 12 -14 -19 28 24 19 2 -5 -1 7 5 -3 -19 -20 -20
-20 -20 -20 -20 -20 -20 -20 -20 -20 -20 -20 -20 -20 -20 -20 -20 4 -20 -6 -7 -20 3 -14 4 -13 8 28 21 16 19 14 24 34 23 7 -3 21 -1 -14 -10 -2 25 -2
-20 -20 -20 -20 -20 -20 -20 -20 -20 -20 -20 -20 -20 -20 -20 -12 -20 -20 -20 -20 -1 8 11 3 -4 -20 -8 15 -5 21 -0 18 8 -7 -8 11 14 14 -18 9 -10 14 -20
-20 -20 -20 -20 -20 -20 -20 -20 -20 -20 -20 -20 -20 -20 -20 -20 21 -20 -20 -19 6 -2 -20 -20 -15 -20 9 4 -11 -20 -19 24 23 -20 -17 6 8 7 -19 4 9 -7 -9
-20 -20 -20 -20 -20 -20 -20 -20 -20 -20 -20 -20 -20 -20 -20 -20 -20 -12 1 -17 -11 -8 -6 -20 -20 12 8 8 -2 -7 8 -0 2 -17 -20 0 8 6 -20 -20 5 29 23
-20 -20 -20 -20 -20 -20 -20 -20 -20 -20 -20 -20 -19 -12 -20 -20 -20 -20 -10 -20 -8 -12 -19 -20 -19 -10 -3 -20 -20 -20 -10 15 10 7 7 -1 -14 11 -20 -20 3 19 17
-20 -20 -20 -20 -20 -20 -20 -20 -20 -20 -20 0 -20 -20 -20 -18 -20 -20 -20 -20 -14 -20 -20 -20 -20 -0 -20 -20 -20 -20 -20 -14 3 5 -20 -3 -16 0 -20 -20 -1 19 26
-20 -20 -20 -20 -20 -20 -20 -20 -2 4 7 -20 -20 -20 -20 -20 -20 -20 -4 -3 -9 -20 -20 -20 -15 -9 -20 -20 -20 -20 -20 -17 -16 -3 -20 -20 -20 -20 -20 -20 -20 -20 -13
-20 -20 -20 -20 -20 -20 -4 5 8 -20 -20 -20 -20 -20 -20 -20 -3 -20 -18 -20 -20 -20 -20 -20 -20 -20 -20 -20 -13 -20 -20 -20 -20 -20 -20 -20 -20 -20 -20 -10 -20 -20 9
-20 -20 -20 -20 -20 -19 7 -19 -20 -15 -16 -20 -20 -20 -20 -14 -14 -20 -20 -20 -20 -20 -20 -20 -20 -19 -20 -20 -20 -7 -20 -20 -20 -20 -20 -20 -20 -20 -20 -20 -14 -20 10
15 12 9 -3 -20 -20 -20 -20 -17 -20 -20 -11 -9 -20 -20 -20 -4 -2 -20 -13 -3 -20 3 -8 -20 -16 -20 -20 -20 -20 -20 -20 -20 -20 -20 -20 -20 -20 -20 -20 20 -20 -17
-17 -9 11 21 19 -20 -20 -3 -18 -20 -20 -20 -20 -20 -20 -20 -19 -14 -20 -20 -20 -20 -20 4 -18 -20 -20 -20 -20 -20 -4 -20 -20 -20 -20 -20 -20 -20 -20 -20 8 17 24
35 35 42 41 16 4 -15 2 -16 -20 -20 -20 -20 -20 -20 -20 -20 -20 -20 -20 -20 -20 -5 -20 -20 -20 5 -20 -20 -17 -20 -20 -20 -20 -11 -20 -20 -20 -20 -20 -18 -20 7
-20 35 48 46 22 12 -20 -6 -20 -0 -16 -20 -20 -20 -20 -20 -16 -20 -3 -17 -20 2 -7 -15 -20 -20 -20 7 2 -5 -20 -20 -20 -20 -20 -20 -20 -20 -20 -20 -20 -1 -15
18 10 1 34 29 28 -2 8 13 30 25 -20 -20 -20 -20 -20 -20 -20 5 8 -20 -20 -7 -12 -0 -3 -9 -20 13 -3 21 3 -20 -20 -20 -20 -20 -20 -20 -20 -20 -20 -20
15 21 4 24 25 25 23 -16 -19 19 31 36 26 -19 -20 -20 -20 -20 -20 -0 6 -20 -20 -20 -20 -20 -20 -5 -20 -20 -4 -20 -20 -20 -18 -3 -20 -12 1 -20 -20 -20 -20
23 11 7 -20 -1 22 1 -11 -20 -16 -20 4 23 4 -2 -20 -20 -20 -20 -17 -20 -20 -20 -20 -20 -20 -20 -9 -20 -5 -17 -20 -13 -3 -18 -20 -20 9 -9 -9 5 4 -20
17 31 -11 16 2 17 20 23 -3 2 0 -7 28 8 -15 -20 -20 -20 -15 -20 -20 -20 1 -13 -20 -20 -14 -17 -9 -18 -20 -19 -18 -20 7 15 -14 -20 -5 -5 4 -16 -13
17 29 -5 26 1 2 16 -20 -20 -20 -14 -6 -1 -7 -20 -20 -20 -20 -20 -20 -20 -20 10 -18 -20 -20 -20 -3 -13 -20 -20 -10 -20 -20 -11 -8 -13 -6 6 5 6 11 -20
15 23 23 29 29 28 24 19 -11 -20 -20 -20 -20 -20 -14 1 -15 -20 -20 -20 -20 -20 5 -20 -20 -20 -20 -20 -20 -20 -20 -20 -20 -18 -20 -3 -20 -15 -7 -5 14 -20 13
15 22 27 25 30 29 14 0 14 -1 -20 -20 -20 -20 -20 -20 -14 -20 -20 -20 -20 -20 -20 -20 -20 -20 -20 -20 -20 -20 -20 -20 -20 -20 -20 -20 -20 -16 11 -7 -3 15 -3
21 25 14 28 18 25 30 25 29 13 -17 -20 -20 -20 -20 -20 -20 -20 -20 -20 -20 -20 -20 -20 -20 -20 -20 -20 -20 -20 -20 -20 -20 -20 -20 -20 -20 -20 -20 -20 -20 -20 -10
25 30 34 32 34 31 42 37 42 32 12 9 -12 -20 -20 -14 -20 -20 -20 -20 -13 -20 -20 -18 -15 -14 -19 -14 -20 -20 -20 -20 -20 -20 -20 -20 -20 -20 -20 -20 -20 -20 -9
33 24 33 29 35 37 23 26 25 15 5 -18 -18 -10 -10 -13 -14 -18 -20 -20 -20 -20 -20 -20 -20 -20 -20 -20 -20 -20 7 -19 -11 9 -20 -20 -20 -20 -20 -20 -20 -20 -20
-4 -5 7 9 35 19 16 16 1 -17 -20 -20 -20 -20 -20 -20 -20 -20 -20 -20 -20 -20 -20 -20 -20 -20 -20 -20 -20 2 -20 -20 -18 2 -10 -20 -20 -20 -20 -20 -20 -20 -20

GFSGL_prec_radar_291.txt.gz
Reflectivity
-20 -20 -20 -20 -20 -20 -20 -20 -20 -20 -20 -20 -20 -20 -20 -20 -20 -20 -20 -20 -20 -20 -20 -20 -20 -20 -20 -20 -12 -17 -20 -20 -19 -20 -15 -20 -20 -20 -20 -20 -20 -20 -20
-20 -20 -20 -20 -20 -20 -20 -20 -20 -20 -20 -20 -20 -20 -20 -20 -20 -20 -19 -20 -20 -20 -20 -20 -20 -20 -20 -1 -16 -13 -20 -20 -20 -20 -8 -19 -20 -20 -20 -20 -20 -20 -20
-20 -20 -20 -20 -20 -20 -20 -20 -20 -20 -20 -20 -20 -20 -20 -20 -20 -20 -20 -20 -20 -20 -20 -20 -20 -20 -20 -7 -20 -1 5 -20 -20 -20 -20 -20 -20 -20 -20 -20 -20 -20 -20
-20 -20 -20 -20 -20 -20 -20 -20 -20 -20 -20 -20 -20 -20 -20 -20 -20 -19 -20 -20 -20 -20 -20 -20 -20 -20 -20 -20 -20 -20 -20 -20 -20 -20 -20 -20 -20 -20 -20 -20 -20 -20 -20
-20 -20 -20 -20 -20 -20 -20 -20 -20 -20 -20 -20 -20 -20 -20 -20 33 -20 -20 -20 -20 -20 -20 -20 -20 -2 9 1 -18 -19 -20 -20 -20 -20 -20 -20 -20 -20 -20 -20 -20 -20 -20
-20 -20 -20 -20 -20 -20 -20 -20 -20 -20 -20 -20 -20 -20 -20 -20 -0 -20 -20 -20 -20 -20 -20 -20 -20 -20 -20 -20 5 -20 -20 -20 -20 -20 -20 -20 -20 -20 -20 -20 -20 -20 -20
-20 -20 -20 -20 -20 -20 -20 -20 -20 -20 -20 -20 -20 -20 -20 -20 -20 -14 -20 -20 -20 -20 -20 -20 -20 -20 -20 -20 -20 -20 -20 -20 -16 -19 -20 -20 -20 -20 -20 -20 -20 -20 -20
-20 -20 -20 -20 -20 -20 -20 -20 -20 -20 -20 -20 -20 -20 -19 -20 -20 -20 -20 -20 -20 -20 -20 -20 -20 -20 -20 -20 -20 -20 -20 -20 -20 -19 -20 -20 -20 -20 -20 -20 -20 -20 -20
-19 -17 -20 -20 -20 -20 -20 -20 -20 -20 -20 -20 -20 -20 -20 -11 0 -16 -20 -20 -20 -20 -20 -20 8 -20 -20 -20 -20 -20 -20 -20 -20 -20 -20 -20 -20 -20 -20 -20 -20 -20 -20
-20 -20 -20 -20 -20 7 -20 -20 -20 -20 -20 -20 -20 33 31 -16 -16 -20 -20 -20 -20 -20 -20 -20 14 -17 -20 11 -20 -20 -20 -20 -20 -20 -20 -20 -20 -20 -20 -20 -20 -20 -20
-20 -20 -20 18 -8 -20 9 23 22 -17 -17 -5 -19 -10 -7 -7 -19 -20 -20 -20 -20 -20 -20 -20 -20 -20 -20 10 5 -20 -20 -20 -20 -20 -20 -20 -20 -20 -20 -20 -20 -20 -20
-20 -20 -20 -20 -19 -5 32 19 36 39 21 0 -12 10 6 -13 -20 -15 -20 -6 -4 -20 -20 -20 -20 -20 -20 -15 -5 -18 -20 -20 -20 -20 -20 -20 -20 -20 -20 -20 -20 -20 -2
-20 -20 -20 -20 -20 -20 -20 -16 36 37 46 43 29 29 9 3 26 -12 -20 -20 -20 -20 -20 -20 -20 -20 -20 -20 -20 -20 -20 -20 -20 -20 -20 -20 -20 -20 -20 -20 -20 -20 -20
-20 -20 -20 -20 -17 -20 -20 -20 -1 31 44 53 49 38 31 31 11 17 -10 -20 -20 -20 -20 -20 -20 -20 -20 -20 -20 -20 -20 -20 -20 -20 -20 -20 -20 -20 -20 -20 -20 -20 -20
-20 -20 -20 -20 -20 -20 -20 -20 -17 19 36 46 47 41 35 30 28 15 7 1 -20 -20 -20 -20 -20 -20 -20 -20 -20 -20 -20 -20 -20 -20 -20 -20 -20 -20 -20 -20 -20 -20 -20
-20 -20 -14 -20 -20 -20 -20 -20 -1 12 21 31 27 20 38 35 28 18 4 9 8 11 -20 -20 -20 -20 -20 -20 -20 -20 -20 -20 -20 -20 -20 -20 -20 -20 -20 -20 -20 -20 -20
-18 11 -20 3 8 -10 -9 -20 -9 2 9 15 17 15 11 9 23 16 11 7 3 7 -20 -20 -20 -20 -20 -10 -20 -20 -13 -19 -20 -20 -20 -20 -20 -20 -20 -20 -20 -20 -20
3 15 -19 -20 -20 -18 -12 -19 -20 -14 -6 -1 0 30 -5 -8 25 23 13 9 20 -5 -20 -20 -20 -20 -20 -20 3 2 -13 -20 -20 3 -1 -20 -20 8 -20 -20 -20 -20 -20
-20 -6 -11 -20 -20 -7 -6 27 18 9 -19 23 -2 -12 -16 -19 6 21 -2 3 -19 -6 -20 -20 -20 -20 -11 -9 9 -15 -16 -20 -17 -20 3 4 -19 -20 -7 -8 -14 -6 -20
9 16 -20 -20 -20 -20 -3 7 24 24 15 -20 -20 -20 -20 -20 -20 0 15 6 -2 -20 -20 -20 -20 -20 -20 -18 -18 -20 -20 -20 -20 -20 -20 -20 -20 -11 -3 13 -8 10 2
20 -20 -15 12 -20 -18 -14 -5 -20 8 24 29 -20 29 24 15 -19 2 19 8 -7 -20 -20 -20 -20 -20 -20 -20 -20 -20 -20 -20 -20 -20 -20 -20 -20 -19 -20 -20 -18 -20 18
-20 -20 -14 -3 7 3 -20 -8 -19 -9 -16 18 22 25 23 -11 17 11 5 -1 -12 -20 -20 -20 -20 -20 -20 -20 -20 -20 -20 -20 -20 -20 -20 -20 -10 -4 -20 -20 -20 -20 -20
-20 -15 -2 5 13 9 -4 -15 -4 -6 4 28 27 4 -7 32 10 8 27 24 4 -20 -20 -20 -20 -20 -20 -20 -20 -20 -20 -20 -20 -20 -20 -20 -20 -20 -20 -20 -20 -20 -20
-20 -19 -20 -0 19 13 24 13 -19 -14 -20 -20 -20 -13 -19 -13 13 7 -1 11 -11 -20 -20 -20 -20 -20 -20 -20 -20 -20 -20 -20 -20 -20 -20 -20 -20 -20 -20 -20 -20 -20 -20
-20 -4 -3 11 26 7 21 2 5 1 7 16 7 5 24 21 -2 -20 -20 6 -2 -18 -20 -20 -20 -20 -20 -20 -20 -20 -19 4 -20 -5 -20 -20 -20 -20 -20 -20 -20 -20 -20
17 6 14 19 17 25 9 27 1 5 14 30 31 28 31 16 10 8 20 34 15 -13 -20 -20 -20 -20 -20 -20 -20 -20 -20 -20 -19 -20 -20 -20 -20 -20 -20 -20 -20 -20 -20